Theta_e
320 321 322 321 321 322 322 321 321 321 321 321 320 321 320 322 322 322 322 322 320 319 318 318 317 317 316 316 315 313 313 314 313 313 312 311 311 310 309 309 310 309
319 321 321 322 322 321 321 322 322 321 321 321 321 322 323 323 322 322 321 320 320 319 318 318 317 316 315 313 314 313 312 313 312 313 312 311 311 311 310 310 310 310
319 319 320 321 321 321 321 321 322 322 322 321 322 322 321 323 322 322 321 320 319 318 318 317 316 315 314 313 313 312 312 311 311 312 311 310 310 310 310 310 310 309
319 319 320 321 322 322 322 320 320 321 322 320 319 320 321 321 322 321 321 320 319 318 318 317 316 315 314 313 313 312 312 311 311 312 311 311 310 310 310 310 309 309
319 319 319 320 321 322 322 320 319 320 320 320 321 320 319 320 320 320 320 319 319 318 317 316 316 315 315 313 312 311 312 310 312 312 310 309 310 310 310 309 309 308
319 318 318 318 320 321 320 319 320 319 319 320 320 319 320 320 320 319 319 318 318 317 316 315 315 314 314 313 313 312 311 310 311 311 309 308 309 309 308 309 308 307
319 319 318 318 319 320 320 321 321 320 319 320 319 319 320 319 319 319 318 317 317 315 314 314 314 313 314 313 312 311 311 310 310 309 307 308 308 308 308 307 306 305
318 319 319 319 319 319 319 319 320 320 320 318 318 319 319 319 318 319 318 317 315 314 313 313 313 312 312 312 310 310 310 311 310 308 307 307 307 305 306 307 307 305
319 319 319 319 319 319 319 319 319 320 319 318 318 318 318 319 318 318 317 316 315 314 313 312 312 311 312 311 310 309 308 309 309 307 307 306 306 305 304 305 305 305
320 320 319 319 318 319 319 319 319 319 318 318 318 318 316 318 318 317 316 316 314 313 312 312 311 311 310 310 309 308 308 307 307 307 307 306 305 304 304 304 304 303
321 321 320 318 318 318 319 319 319 319 318 317 318 317 317 317 317 317 316 315 314 312 312 311 311 310 309 309 309 309 308 307 307 306 306 305 305 304 303 304 303 303
321 320 320 319 319 319 319 319 319 318 318 317 317 316 316 316 316 315 315 314 313 312 312 311 310 310 309 308 308 308 308 307 306 305 305 304 304 304 303 303 303 302
320 321 321 320 320 319 319 319 318 318 317 316 316 315 315 314 315 314 315 314 313 313 311 310 309 309 309 308 308 307 306 305 305 305 304 305 303 302 302 302 302 302
320 321 322 322 320 319 318 319 318 317 316 315 314 313 312 312 313 313 314 314 313 312 311 310 309 309 308 308 307 306 306 305 304 304 303 302 302 301 301 300 300 300
320 320 321 321 320 319 317 316 315 314 314 313 313 313 314 313 313 312 311 311 311 311 310 310 309 308 308 307 306 305 305 304 303 301 300 300 299 299 299 299 299 300
315 318 319 320 319 318 316 316 314 313 313 313 313 313 311 311 308 310 310 308 308 307 306 307 308 308 304 299 301 304 303 301 300 300 299 299 298 298 298 299 299 299
313 314 316 317 318 318 316 315 314 313 313 313 312 311 309 308 309 307 307 306 306 306 306 306 307 305 295 294 295 297 300 300 299 299 298 298 298 297 297 297 298 298
311 312 313 315 317 316 315 314 314 313 313 313 312 309 309 309 308 307 307 307 306 306 305 305 305 298 293 293 293 294 296 299 299 298 298 297 297 297 297 297 297 298
310 311 312 313 314 315 315 314 313 313 313 313 311 311 310 308 307 307 305 305 305 305 304 304 303 294 293 293 292 292 293 297 298 298 297 297 297 297 297 297 297 297
309 310 310 312 313 314 314 314 313 312 313 314 312 311 308 308 309 307 305 304 304 304 304 303 303 295 292 292 292 291 290 293 297 297 297 296 296 296 297 297 296 296
309 309 310 311 312 312 312 312 313 313 313 312 311 309 306 307 307 306 305 305 304 304 303 303 303 292 291 291 291 291 289 292 298 297 297 297 297 297 296 296 296 296
308 309 310 310 311 311 310 311 312 313 312 312 310 309 307 305 305 304 303 304 304 303 302 301 299 291 291 291 290 290 290 297 297 297 296 296 296 296 296 296 296 296
308 308 308 309 310 310 310 310 311 312 312 311 309 307 306 304 303 303 302 301 301 302 301 299 298 293 290 290 290 289 292 297 296 295 295 295 295 295 295 295 296 296
307 308 307 308 309 309 309 310 311 312 312 309 308 305 303 302 301 301 301 300 300 300 300 298 298 294 290 290 290 289 292 295 295 294 294 294 294 295 295 295 295 294
307 307 307 308 308 309 309 310 310 310 309 306 305 304 302 300 298 297 297 299 299 298 298 298 296 294 290 290 290 289 293 296 295 294 293 293 294 293 295 295 295 295
307 307 307 308 308 308 309 309 309 305 304 303 301 299 297 297 298 297 296 295 297 298 298 297 296 295 295 289 290 290 290 294 295 293 292 292 293 293 293 294 294 294
Wind_Speed
6 6 7 6 6 6 6 6 6 6 6 5 6 6 7 6 7 7 6 6 7 7 7 7 7 6 5 6 6 6 6 6 5 5 5 5 5 5 5 5 5 4
8 7 5 5 5 4 4 5 6 7 7 7 6 5 4 5 6 7 7 7 7 7 7 7 6 6 6 5 5 5 5 5 5 3 5 5 4 5 5 5 4 3
8 7 7 7 6 7 7 6 5 6 6 6 5 4 5 4 6 6 7 8 7 7 7 7 7 6 6 6 5 5 5 5 4 3 3 4 3 3 4 3 3 3
9 8 8 8 7 7 6 6 6 5 4 4 6 5 5 5 6 7 7 8 7 7 7 6 6 6 5 5 5 4 5 4 3 3 3 2 2 3 3 2 2 2
8 8 7 7 6 6 5 6 7 7 7 6 5 5 5 6 6 7 7 8 8 8 7 7 6 6 5 5 4 4 4 4 3 3 2 3 2 1 2 2 2 2
7 7 7 7 7 7 6 8 8 7 7 6 6 6 6 7 7 8 9 9 8 8 7 7 6 5 5 5 4 4 3 3 3 3 3 2 2 2 1 1 1 2
7 6 8 7 8 7 8 7 7 7 7 6 6 6 7 8 8 9 10 10 10 9 9 8 7 6 5 4 4 4 4 4 4 3 2 2 1 1 1 1 2 2
9 9 8 8 8 8 9 8 7 7 6 7 8 8 8 9 10 9 9 10 10 10 9 9 8 7 6 5 5 5 5 3 3 3 2 2 1 1 2 2 2 4
9 9 9 10 10 9 9 9 8 7 7 8 8 8 8 9 10 10 11 11 10 10 10 9 9 8 6 7 6 7 6 5 4 3 2 2 1 0 2 2 3 4
10 9 7 7 8 8 9 9 6 6 7 8 9 8 9 8 9 11 11 11 11 10 10 9 9 8 8 7 7 6 6 6 5 4 3 3 1 1 1 2 3 4
10 9 9 9 9 8 9 9 8 7 6 8 8 8 9 8 8 9 10 11 10 11 10 10 10 10 9 8 7 6 5 5 4 4 3 2 1 1 2 3 4 5
9 9 9 9 9 9 10 8 7 7 8 8 8 9 9 10 11 10 11 12 11 11 10 10 10 9 9 8 8 7 6 5 4 3 2 0 1 2 3 4 5 6
9 9 8 9 9 9 8 8 9 9 8 7 7 6 6 6 8 11 9 11 10 9 10 10 10 9 8 8 8 7 6 6 4 3 1 0 2 3 4 4 5 5
9 9 8 8 8 8 8 9 7 5 4 4 5 6 8 11 11 10 7 8 8 9 9 9 9 8 8 8 7 7 6 5 4 3 1 1 1 2 3 4 5 6
7 8 8 8 7 6 7 7 4 5 6 7 9 10 8 4 4 5 7 7 8 8 8 7 8 8 7 7 7 7 5 5 4 3 2 1 1 2 3 4 5 6
6 7 8 8 7 6 7 5 5 8 9 10 10 8 9 12 14 12 11 12 9 9 9 7 7 6 7 10 8 6 5 4 4 3 2 1 1 2 4 5 6 7
5 6 6 7 8 6 6 8 8 8 9 9 7 8 9 10 10 12 11 9 9 9 9 7 6 6 13 11 10 8 6 5 3 2 1 1 2 3 5 6 7 8
6 6 6 7 7 7 8 9 9 9 10 9 7 9 9 9 9 9 9 9 7 8 8 7 6 10 13 11 10 9 6 4 3 1 1 2 3 4 5 6 8 8
7 7 7 6 7 8 8 8 10 10 10 9 10 11 9 10 11 10 9 8 9 10 9 7 7 11 12 12 11 9 6 2 2 1 1 2 4 5 6 7 7 8
7 7 8 7 6 7 9 9 10 11 11 9 8 8 9 9 10 10 9 10 9 9 8 8 8 10 11 10 10 9 8 3 1 0 1 3 4 5 5 6 7 8
7 7 7 7 6 7 9 11 11 10 10 8 8 10 10 11 12 11 10 10 10 9 9 8 6 10 10 10 9 8 7 4 1 1 1 2 3 4 5 6 8 8
8 9 8 7 7 7 10 11 12 11 10 9 8 8 5 5 6 7 9 9 9 10 10 8 6 10 10 10 8 7 7 2 1 1 1 3 4 4 6 6 7 8
9 9 10 9 8 8 10 11 12 11 8 7 8 9 9 10 9 8 8 9 10 9 10 8 8 8 10 9 8 7 4 0 1 2 3 4 5 6 6 7 7 8
10 10 10 10 9 9 10 11 11 9 8 7 9 9 8 6 5 6 6 6 7 8 9 9 8 7 8 7 6 5 2 1 3 4 5 6 7 7 7 8 9 12
10 10 10 10 11 10 10 11 11 10 6 5 5 4 5 6 8 9 9 6 5 6 8 9 7 6 6 6 5 5 3 2 4 5 6 7 8 8 8 8 8 8
9 10 10 10 11 11 11 11 7 6 7 7 7 7 7 6 7 7 8 6 5 6 5 6 6 5 6 5 4 3 4 4 4 6 8 9 9 9 9 9 9 9
Wind_Direction
197 197 192 190 197 195 183 186 183 180 186 183 188 184 178 168 158 163 157 149 142 136 134 131 130 128 122 117 114 111 109 112 109 107 105 102 97 91 83 78 69 59
199 204 209 197 194 185 193 195 185 188 184 185 193 181 171 160 165 161 155 152 147 140 138 136 137 134 131 119 115 110 109 112 114 125 116 112 108 105 96 96 92 83
196 200 209 210 204 195 194 193 195 195 187 188 179 176 168 173 162 161 155 155 150 144 144 141 142 143 132 123 118 108 106 108 104 109 100 95 87 78 86 86 86 85
199 200 205 214 215 204 191 186 196 197 189 176 189 183 174 168 164 158 155 156 152 151 149 149 149 147 138 130 126 113 115 113 106 114 111 103 89 69 70 64 62 58
204 202 205 213 218 214 194 197 197 197 194 193 173 170 170 164 166 163 162 161 157 155 155 152 152 148 146 139 131 126 128 125 138 148 126 122 101 73 60 25 35 6
216 214 213 214 215 212 210 207 203 197 194 188 185 176 177 170 171 169 165 162 163 158 157 154 154 150 153 141 140 133 138 133 134 148 129 122 126 116 94 43 4 343
225 218 219 218 219 217 222 219 208 197 197 192 173 182 174 173 174 172 169 167 164 164 162 161 158 156 155 151 146 140 135 129 138 145 132 106 81 101 98 23 3 341
212 210 216 222 224 219 218 220 211 202 187 182 190 188 181 178 178 169 170 168 167 167 165 163 162 158 158 157 150 143 137 138 144 148 138 113 78 16 20 3 345 334
218 216 214 210 213 222 227 225 214 198 185 188 193 185 187 184 177 171 170 170 168 167 164 161 161 156 159 159 152 153 150 150 154 154 151 150 154 35 331 344 317 321
230 230 228 225 223 225 228 228 225 213 197 199 195 183 185 188 178 172 168 170 169 167 165 160 158 154 156 156 153 153 156 154 155 154 154 162 169 222 281 278 301 303
244 241 234 230 230 234 232 229 223 216 203 208 198 188 187 177 179 176 172 173 171 170 166 163 159 156 153 151 149 152 148 146 150 149 156 168 206 280 276 295 300 298
244 243 239 236 231 231 233 233 224 218 211 207 197 199 184 179 179 181 181 178 174 171 166 161 157 156 156 153 150 145 141 142 147 154 156 202 301 306 313 311 306 305
258 251 242 239 234 234 232 228 225 219 208 200 179 180 144 177 200 187 182 178 169 163 162 157 155 155 152 151 150 148 148 149 154 156 154 156 315 315 314 312 305 303
269 269 260 247 240 241 239 236 226 201 179 153 146 169 183 195 184 182 173 172 164 164 159 153 152 154 154 154 153 151 152 154 151 151 166 220 303 306 311 307 304 298
278 275 273 270 255 231 231 234 176 150 150 161 169 190 200 147 106 140 163 173 166 157 142 149 162 160 160 159 154 153 155 153 148 148 156 171 236 276 286 290 291 288
295 281 273 268 261 244 238 225 175 173 186 189 190 181 161 168 179 170 170 170 163 159 162 162 160 166 139 138 145 153 152 140 140 146 154 185 275 293 290 283 282 280
298 289 279 268 259 240 215 217 209 202 210 207 194 174 177 172 182 176 176 166 161 158 158 158 150 143 142 142 129 123 137 139 145 149 161 247 280 293 293 292 285 284
302 294 279 266 251 234 218 214 211 212 217 210 189 186 191 178 178 182 170 161 149 152 152 151 148 139 148 144 142 145 146 142 147 159 216 281 292 293 293 292 293 291
290 287 281 267 248 236 222 213 212 215 218 206 197 194 181 180 183 171 163 155 153 153 152 149 141 151 151 151 150 142 134 164 148 132 287 298 299 293 295 298 299 295
277 277 277 273 260 244 242 229 215 215 214 208 197 181 180 185 178 164 156 157 154 151 149 149 150 159 151 140 131 135 145 180 120 184 291 288 292 298 297 297 293 291
282 281 279 278 267 251 249 237 226 217 212 204 193 184 182 179 174 168 160 158 157 150 146 145 132 133 133 134 134 136 146 200 129 191 260 283 289 299 297 293 289 284
292 289 284 276 266 260 255 241 231 218 210 200 191 183 172 154 155 149 149 148 145 142 142 133 122 140 142 137 141 141 172 196 135 236 281 305 311 313 305 296 289 285
285 285 285 284 272 264 260 246 234 219 203 187 184 186 180 179 166 154 144 137 136 141 140 131 134 147 141 143 142 153 196 79 266 298 321 321 314 310 302 292 282 278
273 275 277 278 274 266 262 251 238 223 202 181 186 174 168 147 127 113 96 100 116 131 137 136 134 143 150 148 156 166 254 321 322 321 323 317 314 306 299 293 283 267
268 269 270 271 270 266 259 249 238 222 186 155 150 118 104 111 120 116 109 98 88 93 110 122 132 149 168 161 184 183 219 301 315 324 316 315 313 307 305 299 293 282
263 262 263 264 264 263 253 244 212 151 140 130 110 109 117 122 123 113 113 111 116 122 125 134 141 150 164 185 204 217 235 302 318 317 317 316 311 310 308 303 298 295